sat.trackr.live / text

‹ back to catalog

TECHSAT 1B (GO-32)

NORAD 25397 · 1998-043D

PAYLOAD ACTIVE UNKNOWN

§ Identity

Operator
Country
ISRA
Launch date
1998-07-10
Launch site
TYMSC
Launch vehicle
Mass (kg)
RCS (m²)
0.20

Purposes: comms, earth_obs

External: N2YO · Heavens-Above · Gunter

§ Orbital elements

Epoch: 2026-09-15T09:30:48.070944Z

Period
101.09 min
Inclination
99.0153°
Eccentricity
0.0001009
Mean motion
14.24442870 rev/d
Perigee alt
809.6 km
Apogee alt
811.1 km
Semi-major
7,188.5 km
B*
3.0520e-5
RAAN
253.4647°
Arg perigee
11.1832°
Mean anomaly
348.9368°
Rev number
46,417

§ Raw data

TECHSAT 1B (GO-32)1 25397U 98043D   26258.39638971  .00000024  00000+0  30520-4 0  99982 25397  99.0153 253.4647 0001009  11.1832 348.9368 14.24442870464171

JSON: /api/v1/satellites/25397 · /tle

For live sub-satellite position, see the globe view (requires WebGL).

§ Visibility from observer

Set your observer location to see the next 7 days of passes ≥ 10°. The values pass through the URL so the page stays shareable.

No JS? Fill the form by hand. The geolocation button needs JavaScript.

§ Radio — SatNOGS DB

ModeDescriptionDownlinkUplink
FSK Mode U 9k6 FSK 435.225 MHz
FSK Mode U 9k6 FSK 435.325 MHz
FSK Mode L/U 9K6 FSK (inactive) 435.225 MHz 1.270 GHz
FSK Mode L/U 9K6 FSK (inactive) 435.225 MHz 1.270 GHz
FSK Mode L/U 9K6 FSK (inactive) 435.225 MHz 1.270 GHz
FSK Mode V/U APRS 9K6 FSK (inactive) 435.225 MHz 145.850 MHz
FSK Mode V/U APRS,BBS 9K6 FSK (inactive) 435.225 MHz 145.930 MHz
FSK Mode V/U BBS 9k6 FSK (inactive) 435.225 MHz 145.890 MHz

8 transmitters · refreshed weekly from db.satnogs.org